Wink, TX

9:47 AM CST on December 13, 2017 (GMT -0600)
Winkler County

Weather History for KINK - October, 2013

Change the Weather History Date:

Friday, October 11, 2013

  Actual Average Record
Temperature  
Mean Temperature 70 °F -  
Max Temperature 87 °F 83 °F 98 °F (2007)
Min Temperature 55 °F 52 °F 38 °F (1976)
Cooling Degree Days 6    
Growing Degree Days 20 (Base 50)    
Moisture  
Dew Point 41 °F    
Average Humidity 42    
Maximum Humidity 84    
Minimum Humidity 14    
Precipitation  
Precipitation 0.00 in - - ()
Sea Level Pressure  
Sea Level Pressure 29.80 in    
Wind  
Wind Speed 7 mph (WNW)    
Max Wind Speed 14 mph    
Max Gust Speed 24 mph    
Visibility 10 miles    
Events      
Averages and records for this station are not official NWS values.
T = Trace of Precipitation, MM = Missing Value Source: NWS Daily Summary

Daily Weather History Graph

Daily Weather History Graph

Search for Another Location

Airport or City:

Trip Planner

Search our weather history database for the weather conditions in past years. The results will help you decide how hot, cold, wet, or windy it might be!

Date:

Astronomy

Oct. 11, 2013 Rise Set
Actual Time 7:53 AM CDT 7:24 PM CDT
Civil Twilight 7:29 AM CDT 7:49 PM CDT
Nautical Twilight 7:00 AM CDT 8:17 PM CDT
Astronomical Twilight 6:32 AM CDT 8:45 PM CDT
Moon 2:26 PM CDT (10/11) 12:19 AM CDT (10/11)
Length of Visible Light 12h 20m
Length of Day
11h 31m
Waxing Crescent, 47% of the Moon is Illuminated
Oct 11
Waxing Crescent
Oct 11
First Quarter
Oct 18
Full
Oct 26
Last Quarter
Nov 3
New

Hourly Weather History & Observations

Time (CDT) Temp. Dew Point Humidity Pressure Visibility Wind Dir Wind Speed Gust Speed Precip Events Conditions
12:53 AM 70.0 °F 57.0 °F 63% 29.71 in 10.0 mi SSE 10.4 mph - N/A   Clear
1:53 AM 66.9 °F 57.0 °F 70% 29.71 in 10.0 mi South 4.6 mph - N/A   Clear
2:53 AM 64.0 °F 55.9 °F 75% 29.73 in 10.0 mi Calm Calm - N/A   Clear
3:53 AM 61.0 °F 55.0 °F 81% 29.73 in 10.0 mi NNW 3.5 mph - N/A   Clear
4:53 AM 59.0 °F 54.0 °F 83% 29.74 in 10.0 mi Calm Calm - N/A   Clear
5:53 AM 57.0 °F 52.0 °F 83% 29.77 in 10.0 mi WNW 3.5 mph - N/A   Clear
6:53 AM 55.9 °F 51.1 °F 84% 29.80 in 10.0 mi NW 8.1 mph - N/A   Clear
7:53 AM 55.9 °F 46.0 °F 69% 29.84 in 10.0 mi NNW 6.9 mph - N/A   Clear
8:53 AM 59.0 °F 44.1 °F 58% 29.86 in 10.0 mi North 5.8 mph - N/A   Clear
9:53 AM 66.0 °F 39.9 °F 38% 29.88 in 10.0 mi NE 9.2 mph - N/A   Clear
10:53 AM 71.1 °F 36.0 °F 28% 29.87 in 10.0 mi NE 5.8 mph - N/A   Clear
11:53 AM 75.0 °F 36.0 °F 24% 29.86 in 10.0 mi Calm Calm - N/A   Clear
12:53 PM 78.1 °F 36.0 °F 22% 29.85 in 10.0 mi WSW 6.9 mph - N/A   Clear
1:53 PM 82.9 °F 36.0 °F 19% 29.81 in 10.0 mi WSW 10.4 mph 24.2 mph N/A   Clear
2:53 PM 82.0 °F 34.0 °F 18% 29.79 in 10.0 mi SW 10.4 mph 21.9 mph N/A   Clear
3:53 PM 86.0 °F 34.0 °F 16% 29.76 in 10.0 mi WSW 13.8 mph 20.7 mph N/A   Clear
4:53 PM 86.0 °F 32.0 °F 14% 29.76 in 10.0 mi West 11.5 mph 21.9 mph N/A   Clear
5:53 PM 86.0 °F 34.0 °F 16% 29.76 in 10.0 mi WSW 13.8 mph - N/A   Clear
6:53 PM 82.9 °F 33.1 °F 17% 29.77 in 10.0 mi West 10.4 mph - N/A   Clear
7:53 PM 77.0 °F 33.1 °F 20% 29.80 in 10.0 mi NW 8.1 mph - N/A   Clear
8:53 PM 71.1 °F 33.1 °F 25% 29.81 in 10.0 mi NW 10.4 mph - N/A   Clear
9:53 PM 68.0 °F 34.0 °F 28% 29.82 in 10.0 mi NNW 8.1 mph - N/A   Clear
10:53 PM 64.9 °F 35.1 °F 33% 29.84 in 10.0 mi Calm Calm - N/A   Clear
11:53 PM 63.0 °F 35.1 °F 35% 29.86 in 10.0 mi Calm Calm - N/A   Clear